Location: Newark
(52.3500°N, 175.9667°E)
Time: 04:01:50
(UTC+00:00)

S-56A Canister/Altair - Pass Details

Date: 27 April 2021
Orbit: 631 x 2501 km, 38.9° (Epoch: 18 May)

Event Time Altitude Azimuth Distance (km) Brightness Sun altitude
Rises 11:59:17 0° 256° (WSW) 4,843 11.5 -23.6°
Reaches altitude 10° 12:03:28 10° 246° (WSW) 3,511 10.7 -23.6°
Enters shadow 12:05:58 17° 234° (SW) 2,774 10.0 -23.6°
